Simultaneous Nadir Overpasses (SNOs) Predictions

Prediction of SNOs between METOP-B and TERRA Satellite Orbit:

Table of predicted SNOs for the next 14.0 days since TLE Epoch: 2/19/2017
Index Date (METOP-B) Time (METOP-B) Lat,Lon (METOP-B) SZA (METOP-B ) Date (TERRA) Time (TERRA) Lat,Lon (TERRA) SZA (TERRA ) Distance(km) Time Diff (sec)
1 02/20/2017 03:22:31 81.31, 176.55 94.51 02/20/2017 03:22:56 81.31, 176.46 94.51 1.58 25
2 02/20/2017 04:13:11 -81.31, -15.92 85.48 02/20/2017 04:12:23 -81.31, -15.93 85.51 0.39 48
3 02/22/2017 22:56:53 81.30,-117.18 93.49 02/22/2017 22:57:11 81.31,-117.00 93.52 3.11 18
4 02/22/2017 23:47:32 -81.31, 50.75 86.46 02/22/2017 23:46:38 -81.31, 50.63 86.50 2.00 54
5 02/25/2017 18:31:15 81.31, -50.53 92.49 02/25/2017 18:31:28 81.31, -50.58 92.49 0.94 13
6 02/
